Flag Weather past 2 weeks in Datteln, North Rhine-Westphalia, Germany

Now
59 °F

Sunny.


Feels Like: 60 °F
Forecast: 51 / 64 °F
Wind: 3 mph from South

Location: Dortmund / Wickede

Current Time: Oct 30, 2014 at 4:21:30 PM

Latest Report: Oct 30, 2014 at 3:50 PM


Visibility: 10 mi

Pressure: 30.21 "Hg

Humidity: 77%

Dew point: 52 °F

Location of DattelnLocation

Historic Weather in Datteln — Graph

°F

Datteln temperature yesterday

Maximum temperature yesterday: 50 °F (at 12:20 PM)
Minimum temperature yesterday: 39 °F (at 6:20 AM)
Average temperature yesterday: 48 °F

Past Weeks' High & Low Weather Summary

 TemperatureHumidityPressure
High73 °F (Oct 19, 2:20 PM)94% (Oct 25, 8:20 PM)30.30 "Hg (Oct 25, 8:20 PM)
Low39 °F (Oct 28, 10:20 PM)53% (Oct 19, 2:20 PM)29.47 "Hg (Oct 21, 4:20 PM)
Average54 °F77%30.03 "Hg
* Reported Oct 15 4:20 PM — Oct 30 3:20 PM, Datteln, Weather by CustomWeather, © 2014

Note: Actual official high and low records may vary slightly from our data, if they occured in-between our weather recording intervals... More about our weather records

Advertising

Datteln weather history for previous 24 hours

 ConditionsComfort  
Time TempWeatherWind HumidityBarometerVisibility
3:20 PM
Oct 30
59 °FScattered clouds.5 mph77%30.21 "HgN/A
2:50 PM59 °FPartly sunny.6 mph77%30.21 "HgN/A
2:20 PM57 °FPartly sunny.6 mph82%30.21 "HgN/A
1:50 PM57 °FBroken clouds.5 mph82%30.21 "HgN/A
1:20 PM57 °FPartly sunny.2 mph82%30.21 "HgN/A
12:50 PM57 °FPartly sunny.2 mph82%30.21 "HgN/A
12:20 PM57 °FPartly sunny.3 mph82%30.21 "HgN/A
11:50 AM57 °FBroken clouds.3 mph82%30.21 "HgN/A
11:20 AM55 °FBroken clouds.6 mph82%30.21 "HgN/A
10:50 AM55 °FPartly sunny.5 mph82%30.21 "Hg6 mi
10:20 AM54 °FBroken clouds.6 mph88%30.21 "Hg6 mi
9:50 AM54 °FPartly sunny.6 mph88%30.21 "Hg6 mi
9:20 AM52 °FPartly sunny.6 mph94%30.21 "Hg5 mi
8:50 AM52 °FPartly sunny.8 mph88%30.18 "Hg4 mi
8:20 AM52 °FFog.7 mph88%30.21 "Hg3 mi
7:50 AM52 °FFog.6 mph88%30.21 "Hg3 mi
7:20 AM50 °FFog.3 mph94%30.21 "Hg2 mi
6:50 AM50 °FLow clouds.5 mph94%30.18 "Hg4 mi
6:20 AM50 °FLow clouds.5 mph94%30.18 "Hg4 mi
5:50 AM50 °FPassing clouds.2 mph94%30.18 "Hg5 mi
5:20 AM50 °FPassing clouds.2 mph88%30.18 "Hg4 mi
10:50 PM
Oct 29
50 °FPassing clouds.5 mph88%30.12 "Hg4 mi
10:20 PM50 °FFog.5 mph88%30.12 "Hg3 mi
9:50 PM50 °FFog.3 mph88%30.12 "Hg2 mi
9:20 PM50 °FFog.6 mph88%30.12 "Hg2 mi
8:50 PM50 °FLight rain. Fog.3 mph88%30.12 "Hg2 mi
8:20 PM50 °FFog.3 mph88%30.12 "Hg2 mi
7:50 PM50 °FPassing clouds.2 mph88%30.09 "Hg4 mi
7:20 PM50 °FPassing clouds.5 mph88%30.09 "Hg4 mi
6:50 PM50 °FPassing clouds.2 mph88%30.09 "Hg4 mi
6:20 PM50 °FFog.5 mph88%30.07 "Hg2 mi
5:50 PM50 °FFog.6 mph88%30.07 "Hg2 mi
5:20 PM48 °FFog.3 mph94%30.07 "Hg3 mi
4:50 PM48 °FFog.5 mph94%30.07 "Hg3 mi
4:20 PM48 °FFog.6 mph87%30.07 "Hg2 mi
Weather by CustomWeather, © 2014

See weather overviewHow to use our weather pages